When you browse on this site, cookies collect data to enhance your experience and personalize the content and advertising you see.
Visit our Privacy Policy to learn more. By continuing to use the site, you agree to this use of cookies and data.
  • In Lithuania
  • List of Countries
  • For 7 days
  • Water Temperature
  • Weather Map
  • Weather Widgets
  • user-avatar
    Login

    Hourly Weather Kerns

    Today, 19 September, Thursday

    Time Temperature Precipitation Wind Pressure Humidity
    00:00 +18°C° 0 mm 1 mps 763 mmHg 91%
    01:00 +18°C° 0 mm 1 mps 762 mmHg 90%
    02:00 +18°C° 0 mm 1 mps 762 mmHg 89%
    03:00 +17°C° 0 mm 2 mps 762 mmHg 88%
    04:00 +18°C° 0 mm 1 mps 762 mmHg 87%
    05:00 +17°C° 0 mm 2 mps 762 mmHg 84%
    06:00 +18°C° 0 mm 2 mps 763 mmHg 80%
    07:00 +18°C° 0 mm 2 mps 763 mmHg 77%
    08:00 +23°C° 0 mm 2 mps 763 mmHg 67%
    09:00 +26°C° 0 mm 2 mps 763 mmHg 57%
    10:00 +29°C° 0 mm 3 mps 763 mmHg 47%
    11:00 +30°C° 0 mm 3 mps 763 mmHg 45%
    12:00 +30°C° 0 mm 4 mps 762 mmHg 43%
    13:00 +32°C° 0 mm 4 mps 761 mmHg 41%
    14:00 +30°C° 0 mm 4 mps 761 mmHg 44%
    15:00 +29°C° 0 mm 4 mps 761 mmHg 47%
    16:00 +29°C° 0 mm 4 mps 761 mmHg 50%
    17:00 +26°C° 0 mm 4 mps 761 mmHg 63%
    18:00 +23°C° 0 mm 4 mps 761 mmHg 76%
    19:00 +20°C° 0 mm 3 mps 762 mmHg 89%
    20:00 +20°C° 0 mm 3 mps 762 mmHg 91%
    21:00 +20°C° 0 mm 4 mps 762 mmHg 94%
    22:00 +19°C° 0 mm 4 mps 763 mmHg 96%
    23:00 +19°C° 0 mm 4 mps 762 mmHg 96%

    Tomorrow, 20 September, Friday

    Time Temperature Precipitation Wind Pressure Humidity
    00:00 +19°C° 0 mm 4 mps 762 mmHg 96%
    01:00 +19°C° 0 mm 4 mps 761 mmHg 96%
    02:00 +19°C° 0 mm 4 mps 761 mmHg 96%
    03:00 +19°C° 0 mm 4 mps 761 mmHg 95%
    04:00 +19°C° 0 mm 4 mps 761 mmHg 94%
    05:00 +19°C° 0 mm 4 mps 762 mmHg 91%
    06:00 +20°C° 0 mm 4 mps 762 mmHg 88%
    07:00 +20°C° 0 mm 4 mps 762 mmHg 85%
    08:00 +23°C° 0 mm 4 mps 763 mmHg 74%
    09:00 +26°C° 0 mm 5 mps 763 mmHg 62%
    10:00 +28°C° 0 mm 5 mps 763 mmHg 51%
    11:00 +29°C° 0 mm 5 mps 762 mmHg 50%
    12:00 +30°C° 0 mm 5 mps 762 mmHg 48%
    13:00 +32°C° 0 mm 5 mps 761 mmHg 47%
    14:00 +30°C° 0.1 mm 5 mps 761 mmHg 51%
    15:00 +29°C° 0.1 mm 5 mps 760 mmHg 56%
    16:00 +28°C° 0.1 mm 5 mps 760 mmHg 60%
    17:00 +26°C° 0.1 mm 5 mps 761 mmHg 71%
    18:00 +23°C° 0.1 mm 4 mps 761 mmHg 82%
    19:00 +21°C° 0.1 mm 4 mps 761 mmHg 93%
    20:00 +21°C° 0.1 mm 4 mps 762 mmHg 94%
    21:00 +20°C° 0.1 mm 4 mps 762 mmHg 95%
    22:00 +20°C° 0.1 mm 4 mps 763 mmHg 95%
    23:00 +20°C° 0.1 mm 4 mps 763 mmHg 96%

    Day after tomorrow, 21 September, Saturday

    Time Temperature Precipitation Wind Pressure Humidity
    00:00 +20°C° 0.1 mm 4 mps 762 mmHg 96%
    01:00 +20°C° 0.1 mm 4 mps 762 mmHg 96%
    02:00 +19°C° 0 mm 4 mps 762 mmHg 95%
    03:00 +19°C° 0 mm 4 mps 762 mmHg 95%
    04:00 +19°C° 0 mm 4 mps 762 mmHg 94%
    05:00 +19°C° 0 mm 4 mps 762 mmHg 93%
    06:00 +19°C° 0 mm 4 mps 762 mmHg 92%
    07:00 +19°C° 0 mm 4 mps 763 mmHg 91%
    08:00 +22°C° 0 mm 4 mps 763 mmHg 78%
    09:00 +25°C° 0 mm 5 mps 763 mmHg 66%
    10:00 +28°C° 0 mm 5 mps 763 mmHg 54%
    11:00 +29°C° 0 mm 5 mps 762 mmHg 50%
    12:00 +30°C° 0 mm 5 mps 762 mmHg 45%
    13:00 +32°C° 0 mm 5 mps 761 mmHg 41%
    14:00 +30°C° 0 mm 5 mps 761 mmHg 46%
    15:00 +30°C° 0 mm 5 mps 761 mmHg 50%
    16:00 +29°C° 0 mm 5 mps 761 mmHg 55%
    17:00 +27°C° 0 mm 5 mps 761 mmHg 67%
    18:00 +25°C° 0 mm 5 mps 762 mmHg 78%
    19:00 +22°C° 0 mm 4 mps 762 mmHg 90%
    20:00 +21°C° 0 mm 4 mps 763 mmHg 92%
    21:00 +21°C° 0 mm 4 mps 763 mmHg 94%
    22:00 +20°C° 0 mm 4 mps 764 mmHg 96%
    23:00 +20°C° 0 mm 4 mps 763 mmHg 96%

    22 September, Sunday

    Time Temperature Precipitation Wind Pressure Humidity
    00:00 +19°C° 0 mm 4 mps 763 mmHg 96%
    01:00 +19°C° 0 mm 4 mps 762 mmHg 96%
    02:00 +19°C° 0 mm 4 mps 762 mmHg 96%
    03:00 +19°C° 0 mm 4 mps 762 mmHg 95%
    04:00 +19°C° 0 mm 4 mps 762 mmHg 95%
    05:00 +19°C° 0 mm 4 mps 762 mmHg 93%
    06:00 +20°C° 0 mm 4 mps 763 mmHg 91%
    07:00 +20°C° 0 mm 4 mps 763 mmHg 89%
    08:00 +23°C° 0 mm 5 mps 763 mmHg 77%
    09:00 +26°C° 0 mm 5 mps 763 mmHg 65%
    10:00 +29°C° 0 mm 5 mps 764 mmHg 54%
    11:00 +30°C° 0 mm 6 mps 763 mmHg 50%
    12:00 +32°C° 0 mm 6 mps 762 mmHg 46%
    13:00 +33°C° 0 mm 6 mps 762 mmHg 43%
    14:00 +32°C° 0 mm 6 mps 762 mmHg 47%
    15:00 +30°C° 0 mm 6 mps 762 mmHg 51%
    16:00 +29°C° 0 mm 6 mps 761 mmHg 56%
    17:00 +27°C° 0.1 mm 5 mps 762 mmHg 67%
    18:00 +25°C° 0.1 mm 5 mps 762 mmHg 79%
    19:00 +22°C° 0.1 mm 5 mps 763 mmHg 90%
    20:00 +22°C° 0.1 mm 4 mps 763 mmHg 92%
    21:00 +21°C° 0.1 mm 4 mps 764 mmHg 95%
    22:00 +21°C° 0.1 mm 4 mps 764 mmHg 97%
    23:00 +21°C° 0.1 mm 4 mps 764 mmHg 97%

    23 September, Monday

    Time Temperature Precipitation Wind Pressure Humidity
    00:00 +21°C° 0.1 mm 4 mps 763 mmHg 96%
    01:00 +21°C° 0.1 mm 4 mps 763 mmHg 96%
    02:00 +21°C° 0.1 mm 4 mps 763 mmHg 96%
    03:00 +20°C° 0.1 mm 4 mps 763 mmHg 96%
    04:00 +20°C° 0.1 mm 4 mps 762 mmHg 96%
    05:00 +21°C° 0.1 mm 4 mps 763 mmHg 95%
    06:00 +21°C° 0.1 mm 5 mps 763 mmHg 93%
    07:00 +22°C° 0.1 mm 5 mps 763 mmHg 92%
    08:00 +25°C° 0.1 mm 5 mps 763 mmHg 82%
    09:00 +26°C° 0.1 mm 5 mps 763 mmHg 72%
    10:00 +28°C° 0.1 mm 6 mps 763 mmHg 61%
    11:00 +29°C° 0 mm 5 mps 763 mmHg 56%
    12:00 +30°C° 0 mm 5 mps 762 mmHg 51%
    13:00 +32°C° 0 mm 5 mps 762 mmHg 47%
    14:00 +30°C° 0 mm 5 mps 762 mmHg 48%
    15:00 +29°C° 0 mm 5 mps 761 mmHg 48%
    16:00 +29°C° 0 mm 5 mps 761 mmHg 49%
    17:00 +27°C° 0 mm 5 mps 762 mmHg 60%
    18:00 +25°C° 0 mm 4 mps 762 mmHg 71%
    19:00 +22°C° 0 mm 4 mps 763 mmHg 82%
    20:00 +21°C° 0 mm 4 mps 763 mmHg 87%
    21:00 +20°C° 0 mm 3 mps 764 mmHg 91%
    22:00 +19°C° 0 mm 3 mps 764 mmHg 95%
    23:00 +19°C° 0 mm 3 mps 764 mmHg 96%

    24 September, Tuesday

    Time Temperature Precipitation Wind Pressure Humidity
    00:00 +19°C° 0 mm 3 mps 763 mmHg 96%
    01:00 +19°C° 0 mm 3 mps 763 mmHg 96%
    02:00 +19°C° 0 mm 3 mps 763 mmHg 96%
    03:00 +19°C° 0 mm 4 mps 762 mmHg 95%
    04:00 +19°C° 0 mm 4 mps 762 mmHg 95%
    05:00 +20°C° 0 mm 4 mps 762 mmHg 94%
    06:00 +20°C° 0 mm 4 mps 763 mmHg 93%
    07:00 +21°C° 0 mm 4 mps 763 mmHg 92%
    08:00 +23°C° 0 mm 4 mps 763 mmHg 79%
    09:00 +27°C° 0 mm 5 mps 763 mmHg 65%
    10:00 +29°C° 0 mm 5 mps 763 mmHg 52%
    11:00 +30°C° 0 mm 5 mps 763 mmHg 50%
    12:00 +30°C° 0 mm 6 mps 762 mmHg 47%
    13:00 +32°C° 0 mm 6 mps 761 mmHg 44%
    14:00 +30°C° 0 mm 6 mps 761 mmHg 48%
    15:00 +29°C° 0 mm 6 mps 761 mmHg 52%
    16:00 +29°C° 0 mm 5 mps 761 mmHg 56%
    17:00 +27°C° 0 mm 5 mps 761 mmHg 66%
    18:00 +25°C° 0 mm 5 mps 762 mmHg 76%
    19:00 +22°C° 0 mm 4 mps 762 mmHg 86%
    20:00 +22°C° 0.2 mm 4 mps 763 mmHg 89%
    21:00 +22°C° 0.2 mm 4 mps 763 mmHg 92%
    22:00 +22°C° 0.2 mm 3 mps 763 mmHg 95%
    23:00 +22°C° 0.4 mm 3 mps 763 mmHg 96%
    Show more